Tracking 35331 objects as of 14-Sep-2026
HD Live streaming from Space Station
objects crossing your sky now

STARLINK-31572

Track STARLINK-31572 now!
10-day predictions
STARLINK-31572 is classified as:


NORAD ID: 59333
Int'l Code: 2024-057P
Launch date: March 25, 2024
Source: United States (US)
Launch site: AIR FORCE EASTERN TEST RANGE (AFETR)
Your satellite tracking list
Your tracking list is empty




NASA's NSSDC Master Catalog

Two Line Element Set (TLE):
1 59333U 24057P   26257.56205492  .00000747  00000-0  36648-4 0  9995
2 59333  43.0004 211.7520 0001118 268.3068  91.7656 15.27577094138595
Source of the keplerian elements: AFSPC